THOR AGENA B DEB, 510

Orbit data source: Space-Track

THOR AGENA B DEB, 510 is space debris in LEO originally from a launch on Sat, 29 Sep 1962 UTC launched from the Air Force Western Test Range (AFWTR). Debris objects in space refer to the collection of defunct objects orbiting the Earth. Examples of debris include non-operational satellites, rocket bodies, and fragments generated from explosions, collisions, or faulty payload assembly.

Loading next visibility...
THOR AGENA B DEB details
Identifier
510, 1962-049C
Orbit
LEO
Last TLE update14 hours ago
Origin
Flag of USDRTE (US)
ManufacturerUnknown
MissionSpacecraft
Bus & MotorUnknown
MassUnknown
Launch date (UTC)
1962-09-29 (62 years ago)
Launch vehicleUnknown
Launch site
Air Force Western Test Range (AFWTR)
Object type
Payload
Rocket body
Debris
Shape & HBRUnknown
Radar Cross SectionSmall (<0.1 m²)

Expand to show TLE details & history

TLE from 14 hours ago
0 THOR AGENA B DEB
1 00510U 62049C   25014.74836650  .00000112  00000-0  11773-3 0  9994
2 00510  80.5148 116.4708 0015248 354.6762 169.3511 13.69978714111671
Epoch: 2025-01-14T17:57Z
Definitive object data (Epoch: 2025-01-14T17:57:38.865Z)
Latitude15.69725°
Longitude-90.0691°
Altitude1,012.852 km
Speed7.341 km/s
True Right ascension19h 35m 10s
True Declination15° 36' 40"
Sunlit
Object was in daylight at TLE epoch
Visualization TLE readout
Latitude-46.51524°
Longitude-77.88689°
Altitude1,024.147 km
Speed7.335 km/s
Apparent Right ascension20h 40m 10s
Apparent Declination-43° 21' 34"
Sunlit
Object is in daylight
Visualization observer readout
Local Sidereal Time08:57:07
Azimuth138.784° SSE
Elevation-85.323°
Doppler factor1
Orbital elements
Apogee altitude1,008.157 km
Perigee altitude985.666 km
Semi-major axis7,375.048 km
Eccentricity0.0015248
Inclination80.5148°
RAAN116.4708°
Arg. of periapsis354.6762°
True anomaly169.38333°
Mean anomaly169.3511°
Eccentric anomaly169.36722°
Mean motion3.42686 °/min
BSTAR0.00011773
Orbital period105.05 mins
Loading maneuver chart data...
Loading historical data...
Loading historical data...
Loading historical data...
Loading historical data...
Loading historical data...
Loading historical data...
Loading historical data...
Other satellites on launch #49 in the year 1962 (1962-09-29 UTC)

THOR AGENA B DEB Visibility forecast

Observer location: undefined°, undefined

Span
Click to sort rows by Start time (UTC) header in descending order
Start Az.
Max El. time (UTC)
Max El. Az.
Max El.
End time (UTC)
End Az.
7 mins2025-01-15 09:06:26.779Z261.997° W2025-01-15 09:09:26.779Z293.319° NW16.742°2025-01-15 09:13:26.779Z334.104° NNW
11 mins2025-01-15 18:17:26.779Z352.27° N2025-01-15 18:22:26.779Z40.921° NE44.556°2025-01-15 18:28:26.779Z167.604° S
4 mins2025-01-15 20:06:26.779Z292.955° NW2025-01-15 20:08:26.779Z272.728° WNW13.511°2025-01-15 20:10:26.779Z253.404° W
7 mins2025-01-16 06:06:26.779Z124.337° SE2025-01-16 06:09:26.779Z91.384° ESE19.753°2025-01-16 06:13:26.779Z46.73° ENE
11 mins2025-01-16 07:50:26.779Z209.001° SW2025-01-16 07:55:26.779Z281.28° WNW39.614°2025-01-16 08:01:26.779Z1.164° NNE
|